Simultaneous Nadir Overpasses (SNOs) Predictions

Prediction of SNOs between GOES-16 and AQUA Satellite Orbit:

Table of predicted SNOs for the next 14.0 days since TLE Epoch: 8/21/2020
Index Date Time (GOES-16) GOES-16 Lat,Lon AQUA Lat,Lon Distance(km) Time Diff (sec)
1 08/22/2020 06:47:59 -0.05, -75.19 0.62, -78.31 355.41 80
2 08/24/2020 06:35:48 -0.05, -75.20 -0.02, -75.36 18.26 80
3 08/26/2020 06:26:17 -0.06, -75.21 -0.66, -72.41 319.14 80
4 08/26/2020 18:45:02 0.06, -75.22 -0.42, -77.60 270.55 80
5 08/28/2020 18:35:30 0.07, -75.24 0.17, -74.64 67.41 80
6 08/30/2020 18:23:19 0.07, -75.26 0.82, -71.69 406.02 80
7 08/31/2020 06:41:54 -0.08, -75.26 0.28, -76.84 179.99 80
8 09/02/2020 06:32:23 -0.08, -75.30 -0.37, -73.89 159.87 80
9 09/02/2020 18:51:08 0.08, -75.31 -0.71, -79.09 429.23 80
10 09/04/2020 18:38:56 0.08, -75.36 -0.11, -76.13 88.36 80
